Regional Weather Roundup
Issued by NWS

Home | Current Version | Previous Version | Graphics & Text | Print | Product List | Glossary On
Versions: 1 2 3 4 5 6 7 8 9 10 11 12 13 14 15 16 17 18 19 20 21 22 23 24 25 26 27 28 29 30 31 32 33 34 35 36 37 38 39 40 41 42 43 44 45 46 47 48 49 50
000
ASUS43 KIND 182309
RWRIN

WEATHER ROUNDUP FOR INDIANA
NATIONAL WEATHER SERVICE INDIANAPOLIS IN
700 PM EDT THU SEP 18 2014

NOTE: "FAIR" INDICATES FEW OR NO CLOUDS BELOW 12,000 FEET WITH NO
SIGNIFICANT WEATHER AND/OR OBSTRUCTIONS TO VISIBILITY.

* - STATION DOES NOT REPORT WEATHER SUCH AS PRECIPITATION OR FOG.

+ - STATION NOT QUALITY CONTROLLED BY THE NATIONAL WEATHER SERVICE.
    USE DATA WITH CAUTION...ESPECIALLY DEWPOINT AND RELATIVE
    HUMIDITY OBSERVATIONS.

INZ001>003-010>013-019-020-190000-
NORTHWEST INDIANA

CITY           SKY/WX    TMP DP  RH WIND       PRES   REMARKS
GARY /AIRPORT/ PTCLDY    63  57  82 NE9       30.12S
KNOX *+        CLEAR     69  49  48 E6        30.09S
LA PORTE +     CLEAR     65  52  64 N8        30.11S
MICHIGAN CITY+ CLEAR     63  52  67 N6        30.11F
MONTICELLO +   CLEAR     69  49  48 E6        30.07S
RENSSELAER +   CLEAR     70  46  43 E5        30.09R
VALPARAISO     CLEAR     65  53  65 N6        30.10S

$$

LMZ046-743>745-190000-
SOUTHERN LAKE MICHIGAN

STATION/POSITION TIME  TEMP WIND        PRES
                       AIR  DIR/SP/G
                 (UTC) (F)  (DEG/KT/KT) (MB)
MICHIGAN CITY    2300   63   10/ 11/ 13   N/A

$$

INZ004-005-014>016-021>024-190000-
NORTH CENTRAL INDIANA

CITY           SKY/WX    TMP DP  RH WIND       PRES   REMARKS
ELKHART        CLEAR     68  48  49 NE6       30.12R
GOSHEN         CLEAR     68  52  56 NE5       30.10S
LOGANSPORT +   CLEAR     66  46  48 E6        30.09S
PERU/GRISSOM   CLEAR     68  53  56 E8        30.09R
ROCHESTER +    CLEAR     70  50  49 E5        30.10S
SOUTH BEND     MOCLDY    70  49  47 VRB3      30.11S
WARSAW +       PTCLDY    68  52  56 CALM      30.10S

$$

INZ006>009-017-018-025>027-190000-
NORTHEAST INDIANA

CITY           SKY/WX    TMP DP  RH WIND       PRES   REMARKS
ANGOLA *+      CLEAR     66  57  72 NE6       30.12R
AUBURN +       MOCLDY    66  50  55 CALM      30.11S
FORT WAYNE     PTCLDY    67  51  56 E6        30.10S
HUNTINGTON +   CLEAR     67  49  52 E3        30.09S

$$

INZ028-029-035-036-043>045-051>053-190000-
WEST CENTRAL INDIANA

CITY           SKY/WX    TMP DP  RH WIND       PRES   REMARKS
GREENCASTLE +  CLEAR     70  50  49 E5        30.06S
LAFAYETTE      CLEAR     69  49  48 E10       30.07R
TERRE HAUTE    CLEAR     70  50  49 E6        30.05S

$$

INZ030>032-037>040-046>048-054>057-064-065-190000-
CENTRAL INDIANA

CITY           SKY/WX    TMP DP  RH WIND       PRES   REMARKS
CP ATTERBURY + CLEAR     68  48  49 E5        30.07R
FRANKFORT +    CLEAR     70  50  49 E5        30.09R
GREENWOOD *+   PTCLDY    70  50  49 E6        30.07
INDIANAPOLIS   CLEAR     70  46  42 E9        30.06S
-EAGLE CREEK   CLEAR     70  46  42 NE5       30.06S
KOKOMO *+      CLEAR     68  48  49 E8        30.09R
MARION +       CLEAR     68  46  44 E5        30.10R
MT COMFORT *+  CLEAR     68  39  34 NE6       30.08R
SHELBYVILLE    CLEAR     72  47  40 VRB3      30.06S
ZIONSVILLE +   CLEAR     69  48  47 E5        30.08S

$$

INZ033-034-041-042-049-050-058-059-190000-
EAST CENTRAL INDIANA

CITY           SKY/WX    TMP DP  RH WIND       PRES   REMARKS
MUNCIE         CLEAR     67  47  48 E8        30.09R

$$

INZ060-061-067>069-081>083-085>088-190000-
SOUTHWEST INDIANA

CITY           SKY/WX    TMP DP  RH WIND       PRES   REMARKS
EVANSVILLE     CLEAR     73  53  49 E8        30.02R
WASHINGTON +   CLEAR     71  53  53 E8        30.03S

$$

INZ062-063-066-070>080-084-089>092-190000-
SOUTH CENTRAL AND SOUTHEAST INDIANA

CITY           SKY/WX    TMP DP  RH WIND       PRES   REMARKS
BLOOMINGTON    CLEAR     70  47  43 E6        30.05S
NORTH VERNON + CLEAR     72  45  37 E3        30.07

$$




USA.gov is the U.S. government's official web portal to all federal, state and local government web resources and services.